Cranfield, United Kingdom

4:19 AM GMT on February 10, 2016 (GMT +0000)
Cranfield

Weather History for EGTC - July, 2013

Change the Weather History Date:

Tuesday, July 30, 2013

  Actual Average Record
Temperature  
Mean Temperature 66 °F -  
Max Temperature 73 °F 70 °F 82 °F (1999)
Min Temperature 60 °F 58 °F 51 °F (2015)
Cooling Degree Days 2    
Growing Degree Days 16 (Base 50)    
Moisture  
Dew Point 59 °F    
Average Humidity 81    
Maximum Humidity 94    
Minimum Humidity 57    
Precipitation  
Precipitation 0.00 in - - ()
Sea Level Pressure  
Sea Level Pressure 29.88 in    
Wind  
Wind Speed 7 mph ()    
Max Wind Speed 10 mph    
Max Gust Speed -    
Visibility 5.8 miles    
Events Rain    
Averages and records for this station are not official NWS values.
T = Trace of Precipitation, MM = Missing Value Source: Averaged Metar Reports

Daily Weather History Graph

Daily Weather History Graph

Search for Another Location

Airport or City:

Trip Planner

Search our weather history database for the weather conditions in past years. The results will help you decide how hot, cold, wet, or windy it might be!

Date:

Astronomy

Jul. 30, 2013 Rise Set
Actual Time 5:21 AM BST 8:55 PM BST
Civil Twilight 4:39 AM BST 9:37 PM BST
Nautical Twilight 3:41 AM BST 10:34 PM BST
Astronomical Twilight 2:14 AM BST 11:58 PM BST
Moon No Moon Rise 2:57 PM BST (7/30)
Length of Visible Light 16h 58m
Length of Day
15h 34m
Last Quarter, 43% of the Moon is Illuminated
Jul 30
Last Quarter
Aug 6
New
Aug 14
First Quarter
Aug 21
Full
Aug 28
Last Quarter

Hourly Weather History & Observations

Time (BST) Temp. Dew Point Humidity Pressure Visibility Wind Dir Wind Speed Gust Speed Precip Events Conditions
8:20 AM 60.8 °F 57.2 °F 88% 29.92 in 6.2 mi SSW 10.4 mph - N/A   Partly Cloudy
8:50 AM 60.8 °F 57.2 °F 88% 29.92 in 6.2 mi SSW 10.4 mph - N/A Rain Light Rain
9:20 AM 62.6 °F 59.0 °F 88% 29.92 in 5.0 mi SSW 9.2 mph - N/A Rain Light Rain
9:50 AM 60.8 °F 59.0 °F 94% 29.92 in 6.2 mi SSW 9.2 mph - N/A   Scattered Clouds
10:20 AM 60.8 °F 59.0 °F 94% 29.92 in 6.2 mi SSW 8.1 mph - N/A   Light Drizzle
10:50 AM 62.6 °F 57.2 °F 82% 29.92 in 6.2 mi SSW 9.2 mph - N/A   Scattered Clouds
11:20 AM 62.6 °F 59.0 °F 88% 29.89 in 6.2 mi SSW 8.1 mph - N/A   Scattered Clouds
11:50 AM 62.6 °F 57.2 °F 82% 29.89 in 4.3 mi SSW 8.1 mph - N/A Rain Light Rain
12:20 PM 62.6 °F 57.2 °F 82% 29.89 in 4.3 mi SSW 10.4 mph - N/A   Mostly Cloudy
12:50 PM 62.6 °F 57.2 °F 82% 29.89 in 5.0 mi Variable 3.5 mph - N/A   Mostly Cloudy
1:20 PM 62.6 °F 59.0 °F 88% 29.86 in 5.0 mi Variable 2.3 mph - N/A   Mostly Cloudy
1:50 PM 64.4 °F 59.0 °F 83% 29.86 in 6.2 mi Variable 3.5 mph - N/A   Mostly Cloudy
2:20 PM 64.4 °F 59.0 °F 83% 29.86 in 6.2 mi Variable 2.3 mph - N/A   Mostly Cloudy
2:50 PM 66.2 °F 60.8 °F 83% 29.86 in 6.2 mi Variable 3.5 mph - N/A   Mostly Cloudy
3:20 PM 69.8 °F 60.8 °F 73% 29.86 in 6.2 mi SW 6.9 mph - N/A   Scattered Clouds
3:50 PM 68.0 °F 60.8 °F 78% 29.86 in 6.2 mi Variable 3.5 mph - N/A   Scattered Clouds
4:20 PM 68.0 °F 60.8 °F 78% 29.86 in 6.2 mi Variable 5.8 mph - N/A   Partly Cloudy
4:50 PM 73.4 °F 57.2 °F 57% 29.83 in 6.2 mi WSW 5.8 mph - N/A   Partly Cloudy
5:20 PM 71.6 °F 59.0 °F 64% 29.83 in 6.2 mi SW 6.9 mph - N/A   Partly Cloudy
5:50 PM 71.6 °F 57.2 °F 60% 29.83 in 6.2 mi WSW 9.2 mph - N/A   Partly Cloudy